Flag for U.S.A. Weather past 2 weeks in Paradise, Nevada, U.S.A.

Now
90 °F

Passing clouds.


Feels Like: 87 °F
Forecast: 80 / 104 °F
Wind: 6 mph from Northeast

Location: McCarran International Airport

Current Time: Aug 1, 2014 at 3:36:14 AM

Latest Report: Aug 1, 2014 at 2:56 AM


Visibility: 10 mi

Pressure: 29.78 "Hg

Humidity: 26%

Dew point: 51 °F

Location of ParadiseLocation

Historic Weather in Paradise — Graph

°F

Paradise temperature yesterday

Maximum temperature yesterday: 108 °F (at 3:04 PM)
Minimum temperature yesterday: 84 °F (at 5:56 AM)
Average temperature yesterday: 97 °F

Past Weeks' High & Low Weather Summary

 TemperatureHumidityPressure
High111 °F (Jul 23, 3:56 PM)58% (Jul 28, 5:56 AM)30.02 "Hg (Jul 28, 5:56 AM)
Low79 °F (Jul 29, 5:56 AM)3% (Jul 22, 5:56 PM)29.60 "Hg (Jul 17, 5:56 PM)
Average94 °F20%29.79 "Hg
* Reported Jul 17 1:56 AM — Aug 1 1:56 AM, Paradise, Weather by CustomWeather, © 2014

Note: Actual official high and low records may vary slightly from our data, if they occured in-between our weather recording intervals... More about our weather records

Advertising

Paradise weather history for previous 24 hours

 ConditionsComfort  
Time TempWeatherWind HumidityBarometerVisibility
1:56 AM
Aug 1
93 °FPartly cloudy.6 mph21%29.76 "Hg10 mi
12:56 AM93 °FPassing clouds.6 mph22%29.75 "Hg10 mi
11:56 PM
Jul 31
95 °FPassing clouds.10 mph19%29.75 "Hg10 mi
10:56 PM97 °FPassing clouds.8 mph16%29.73 "Hg10 mi
9:56 PM99 °FPassing clouds.10 mph15%29.72 "Hg10 mi
8:56 PM101 °FPassing clouds.14 mph12%29.71 "Hg10 mi
7:56 PM103 °FPartly sunny.15 mph11%29.70 "Hg10 mi
6:56 PM105 °FPartly sunny.16 mph10%29.69 "Hg10 mi
5:56 PM106 °FBroken clouds.16 mph10%29.69 "Hg10 mi
4:56 PM106 °FScattered clouds.16 mph10%29.70 "Hg10 mi
3:56 PM107 °FScattered clouds.15 mph10%29.71 "Hg10 mi
3:04 PM108 °FScattered clouds.13 mph10%29.82 "Hg10 mi
2:56 PM107 °FScattered clouds.15 mph11%29.72 "Hg10 mi
1:56 PM104 °FScattered clouds.9 mph13%29.76 "Hg10 mi
12:56 PM102 °FScattered clouds.3 mph15%29.79 "Hg10 mi
11:56 AM100 °FPassing clouds.5 mph16%29.81 "Hg10 mi
10:56 AM96 °FPassing clouds.7 mph19%29.83 "Hg10 mi
9:56 AM96 °FPassing clouds.No wind19%29.83 "Hg10 mi
8:56 AM92 °FScattered clouds.8 mph23%29.84 "Hg10 mi
7:56 AM89 °FScattered clouds.10 mph27%29.84 "Hg10 mi
6:56 AM85 °FPartly sunny.8 mph32%29.83 "Hg10 mi
5:56 AM84 °FPassing clouds.9 mph33%29.83 "Hg10 mi
4:56 AM85 °FPassing clouds.9 mph32%29.82 "Hg10 mi
3:56 AM87 °FPassing clouds.8 mph30%29.80 "Hg10 mi
Weather by CustomWeather, © 2014

See weather overviewHow to use our weather pages